Time,TemperatureF,DewpointF,PressureIn,WindDirection,WindDirectionDegrees,WindSpeedMPH,WindSpeedGustMPH,Humidity,HourlyPrecipIn,Conditions,Clouds,dailyrainin,SoftwareType,DateUTC
2013-01-25 00:12:00,4.6,-1.0,30.48,WSW,238,1.0,2.0,78,0.00,,,0.00,weatherlink.com 1.10,2013-01-25 05:12:00,
2013-01-25 00:27:00,4.4,-1.0,30.49,WSW,243,2.0,3.0,79,0.00,,,0.00,weatherlink.com 1.10,2013-01-25 05:27:00,
2013-01-25 00:42:00,4.3,-1.0,30.48,WSW,240,1.0,2.0,79,0.00,,,0.00,weatherlink.com 1.10,2013-01-25 05:42:00,
2013-01-25 00:57:00,4.5,0.0,30.48,WSW,251,1.0,2.0,80,0.00,,,0.00,weatherlink.com 1.10,2013-01-25 05:57:00,
2013-01-25 01:12:00,4.4,-1.0,30.47,WSW,240,2.0,3.0,80,0.00,,,0.00,weatherlink.com 1.10,2013-01-25 06:12:00,
2013-01-25 01:27:00,4.6,0.0,30.47,West,266,2.0,4.0,80,0.00,,,0.00,weatherlink.com 1.10,2013-01-25 06:27:00,
2013-01-25 01:42:00,4.9,0.0,30.48,West,262,2.0,5.0,80,0.00,,,0.00,weatherlink.com 1.10,2013-01-25 06:42:00,
2013-01-25 01:57:00,5.3,0.0,30.49,West,268,3.0,5.0,80,0.00,,,0.00,weatherlink.com 1.10,2013-01-25 06:57:00,
2013-01-25 02:12:00,6.1,1.0,30.49,West,262,4.0,5.0,80,0.00,,,0.00,weatherlink.com 1.10,2013-01-25 07:12:00,
2013-01-25 02:27:00,6.8,2.0,30.49,West,262,2.0,7.0,79,0.00,,,0.00,weatherlink.com 1.10,2013-01-25 07:27:00,
2013-01-25 02:42:00,7.3,2.0,30.50,WSW,243,2.0,5.0,78,0.00,,,0.00,weatherlink.com 1.10,2013-01-25 07:42:00,
2013-01-25 02:58:00,7.6,2.0,30.49,WSW,249,2.0,4.0,78,0.00,,,0.00,weatherlink.com 1.10,2013-01-25 07:58:00,
2013-01-25 03:13:00,7.8,2.0,30.48,SW,235,4.0,5.0,78,0.00,,,0.00,weatherlink.com 1.10,2013-01-25 08:13:00,
2013-01-25 03:28:00,8.2,3.0,30.48,West,262,3.0,4.0,78,0.00,,,0.00,weatherlink.com 1.10,2013-01-25 08:28:00,
2013-01-25 03:43:00,8.7,3.0,30.48,West,266,1.0,6.0,78,0.00,,,0.00,weatherlink.com 1.10,2013-01-25 08:43:00,
2013-01-25 03:58:00,8.7,3.0,30.47,West,259,1.0,4.0,78,0.00,,,0.00,weatherlink.com 1.10,2013-01-25 08:58:00,
2013-01-25 04:13:00,8.7,3.0,30.46,SW,224,2.0,3.0,78,0.00,,,0.00,weatherlink.com 1.10,2013-01-25 09:13:00,
2013-01-25 04:28:00,8.8,3.0,30.45,WSW,248,1.0,2.0,78,0.00,,,0.00,weatherlink.com 1.10,2013-01-25 09:28:00,
2013-01-25 04:43:00,8.8,3.0,30.43,SW,236,0.0,3.0,78,0.00,,,0.00,weatherlink.com 1.10,2013-01-25 09:43:00,
2013-01-25 04:58:00,8.8,3.0,30.42,SW,236,0.0,0.0,78,0.00,,,0.00,weatherlink.com 1.10,2013-01-25 09:58:00,
2013-01-25 05:14:00,8.7,3.0,30.42,SW,236,1.0,3.0,79,0.00,,,0.00,weatherlink.com 1.10,2013-01-25 10:14:00,
2013-01-25 05:28:00,8.8,3.0,30.42,SW,228,0.0,1.0,78,0.00,,,0.00,weatherlink.com 1.10,2013-01-25 10:28:00,
2013-01-25 05:44:00,8.7,3.0,30.42,SW,228,0.0,0.0,79,0.00,,,0.00,weatherlink.com 1.10,2013-01-25 10:44:00,
2013-01-25 05:59:00,8.8,4.0,30.41,SW,228,0.0,0.0,80,0.00,,,0.00,weatherlink.com 1.10,2013-01-25 10:59:00,
2013-01-25 06:14:00,8.9,4.0,30.41,SSW,205,1.0,2.0,80,0.00,,,0.00,weatherlink.com 1.10,2013-01-25 11:14:00,
2013-01-25 06:29:00,8.9,4.0,30.40,SSE,166,0.0,1.0,80,0.00,,,0.00,weatherlink.com 1.10,2013-01-25 11:29:00,
2013-01-25 06:44:00,8.8,4.0,30.39,SSE,167,0.0,0.0,80,0.00,,,0.00,weatherlink.com 1.10,2013-01-25 11:44:00,
2013-01-25 06:59:00,8.9,5.0,30.39,West,266,0.0,0.0,82,0.00,,,0.00,weatherlink.com 1.10,2013-01-25 11:59:00,
2013-01-25 07:14:00,9.4,5.0,30.38,SW,233,2.0,2.0,82,0.00,,,0.00,weatherlink.com 1.10,2013-01-25 12:14:00,
2013-01-25 07:29:00,9.7,5.0,30.37,SW,224,2.0,2.0,82,0.00,,,0.00,weatherlink.com 1.10,2013-01-25 12:29:00,
2013-01-25 07:44:00,9.9,5.0,30.37,SSE,153,1.0,3.0,81,0.00,,,0.00,weatherlink.com 1.10,2013-01-25 12:44:00,
2013-01-25 07:59:00,9.8,5.0,30.36,SE,138,0.0,0.0,81,0.00,,,0.00,weatherlink.com 1.10,2013-01-25 12:59:00,
2013-01-25 08:14:00,9.9,5.0,30.35,SE,143,0.0,0.0,81,0.00,,,0.00,weatherlink.com 1.10,2013-01-25 13:14:00,
2013-01-25 08:29:00,10.4,6.0,30.34,ESE,112,0.0,0.0,82,0.00,,,0.00,weatherlink.com 1.10,2013-01-25 13:29:00,
2013-01-25 08:44:00,11.2,7.0,30.34,SE,131,2.0,4.0,84,0.00,,,0.00,weatherlink.com 1.10,2013-01-25 13:44:00,
2013-01-25 09:00:00,12.6,8.0,30.33,SSE,158,1.0,4.0,83,0.00,,,0.00,weatherlink.com 1.10,2013-01-25 14:00:00,
2013-01-25 09:16:00,13.8,8.0,30.32,SSE,165,3.0,5.0,79,0.00,,,0.00,weatherlink.com 1.10,2013-01-25 14:16:00,
2013-01-25 09:34:00,14.2,8.0,30.31,ESE,121,1.0,6.0,77,0.00,,,0.00,weatherlink.com 1.10,2013-01-25 14:34:00,
2013-01-25 09:45:00,14.4,8.0,30.30,ESE,120,3.0,7.0,75,0.00,,,0.00,weatherlink.com 1.10,2013-01-25 14:45:00,
2013-01-25 10:00:00,14.4,8.0,30.29,SE,135,5.0,7.0,74,0.00,,,0.00,weatherlink.com 1.10,2013-01-25 15:00:00,
2013-01-25 10:15:00,14.6,7.0,30.28,SE,131,5.0,8.0,72,0.00,,,0.00,weatherlink.com 1.10,2013-01-25 15:15:00,
2013-01-25 10:30:00,15.1,8.0,30.28,SSE,158,2.0,6.0,73,0.00,,,0.00,weatherlink.com 1.10,2013-01-25 15:30:00,
2013-01-25 10:45:00,15.0,8.0,30.27,ESE,118,4.0,5.0,72,0.00,,,0.00,weatherlink.com 1.10,2013-01-25 15:45:00,
2013-01-25 11:00:00,15.3,8.0,30.26,ESE,122,2.0,6.0,72,0.00,,,0.00,weatherlink.com 1.10,2013-01-25 16:00:00,
2013-01-25 11:15:00,15.6,8.0,30.25,South,169,3.0,7.0,71,0.00,,,0.00,weatherlink.com 1.10,2013-01-25 16:15:00,
2013-01-25 11:31:00,16.2,8.0,30.24,ESE,108,6.0,7.0,70,0.00,,,0.00,weatherlink.com 1.10,2013-01-25 16:31:00,
2013-01-25 11:46:00,16.3,8.0,30.23,SSE,155,4.0,9.0,69,0.00,,,0.00,weatherlink.com 1.10,2013-01-25 16:46:00,
2013-01-25 12:01:00,16.3,8.0,30.22,South,172,3.0,7.0,69,0.00,,,0.00,weatherlink.com 1.10,2013-01-25 17:01:00,
2013-01-25 12:16:00,17.1,8.0,30.21,SSE,152,4.0,7.0,68,0.00,,,0.00,weatherlink.com 1.10,2013-01-25 17:16:00,
2013-01-25 12:32:00,17.4,8.0,30.20,SW,225,4.0,5.0,67,0.00,,,0.00,weatherlink.com 1.10,2013-01-25 17:32:00,
2013-01-25 12:46:00,17.6,8.0,30.19,SE,131,5.0,6.0,67,0.00,,,0.00,weatherlink.com 1.10,2013-01-25 17:46:00,
2013-01-25 13:01:00,17.3,7.0,30.18,ESE,110,6.0,7.0,65,0.00,,,0.00,weatherlink.com 1.10,2013-01-25 18:01:00,
2013-01-25 13:16:00,17.0,7.0,30.17,ESE,103,4.0,6.0,66,0.00,,,0.00,weatherlink.com 1.10,2013-01-25 18:16:00,
2013-01-25 13:31:00,17.8,8.0,30.16,South,169,4.0,4.0,66,0.00,,,0.00,weatherlink.com 1.10,2013-01-25 18:31:00,
2013-01-25 13:46:00,17.5,8.0,30.16,SE,141,2.0,4.0,65,0.00,,,0.00,weatherlink.com 1.10,2013-01-25 18:46:00,
2013-01-25 14:01:00,17.2,7.0,30.14,East,79,2.0,5.0,64,0.00,,,0.00,weatherlink.com 1.10,2013-01-25 19:01:00,
2013-01-25 14:16:00,16.8,7.0,30.13,East,101,2.0,6.0,66,0.00,,,0.00,weatherlink.com 1.10,2013-01-25 19:16:00,
2013-01-25 14:31:00,17.1,8.0,30.12,ESE,105,4.0,8.0,67,0.00,,,0.00,weatherlink.com 1.10,2013-01-25 19:31:00,
2013-01-25 14:46:00,16.8,8.0,30.11,East,89,5.0,6.0,68,0.00,,,0.00,weatherlink.com 1.10,2013-01-25 19:46:00,
2013-01-25 15:01:00,16.8,8.0,30.11,SE,129,1.0,6.0,69,0.00,,,0.00,weatherlink.com 1.10,2013-01-25 20:01:00,
2013-01-25 15:16:00,17.0,9.0,30.10,ENE,72,2.0,7.0,70,0.00,,,0.00,weatherlink.com 1.10,2013-01-25 20:16:00,
2013-01-25 15:32:00,17.0,9.0,30.09,SE,133,3.0,6.0,72,0.00,,,0.00,weatherlink.com 1.10,2013-01-25 20:32:00,
2013-01-25 15:46:00,16.8,10.0,30.09,SE,134,3.0,7.0,74,0.00,,,0.00,weatherlink.com 1.10,2013-01-25 20:46:00,
2013-01-25 16:01:00,16.5,10.0,30.08,SE,131,2.0,6.0,76,0.00,,,0.00,weatherlink.com 1.10,2013-01-25 21:01:00,
2013-01-25 16:17:00,16.2,11.0,30.08,SE,124,4.0,6.0,78,0.00,,,0.00,weatherlink.com 1.10,2013-01-25 21:17:00,
2013-01-25 16:31:00,16.1,11.0,30.08,SE,136,3.0,4.0,79,0.00,,,0.00,weatherlink.com 1.10,2013-01-25 21:31:00,
2013-01-25 16:47:00,16.3,11.0,30.07,East,94,2.0,5.0,79,0.00,,,0.00,weatherlink.com 1.10,2013-01-25 21:47:00,
2013-01-25 17:02:00,16.0,11.0,30.06,SE,138,2.0,4.0,80,0.00,,,0.00,weatherlink.com 1.10,2013-01-25 22:02:00,
2013-01-25 17:17:00,15.7,11.0,30.06,ESE,120,1.0,3.0,81,0.00,,,0.00,weatherlink.com 1.10,2013-01-25 22:17:00,
2013-01-25 17:32:00,15.5,11.0,30.06,East,99,0.0,2.0,82,0.00,,,0.00,weatherlink.com 1.10,2013-01-25 22:32:00,
2013-01-25 17:47:00,15.3,11.0,30.05,ESE,106,0.0,0.0,83,0.00,,,0.00,weatherlink.com 1.10,2013-01-25 22:47:00,
2013-01-25 18:03:00,15.0,11.0,30.06,East,91,0.0,0.0,83,0.00,,,0.00,weatherlink.com 1.10,2013-01-25 23:03:00,
2013-01-25 18:17:00,15.0,11.0,30.05,ENE,72,0.0,0.0,84,0.00,,,0.00,weatherlink.com 1.10,2013-01-25 23:17:00,
2013-01-25 18:32:00,14.6,11.0,30.06,ENE,72,0.0,0.0,84,0.00,,,0.00,weatherlink.com 1.10,2013-01-25 23:32:00,
2013-01-25 18:47:00,14.2,11.0,30.06,East,93,0.0,0.0,85,0.00,,,0.00,weatherlink.com 1.10,2013-01-25 23:47:00,
2013-01-25 19:18:00,13.7,10.0,30.05,East,83,0.0,0.0,85,0.00,,,0.00,weatherlink.com 1.10,2013-01-26 00:18:00,
2013-01-25 19:34:00,13.3,10.0,30.05,East,83,0.0,0.0,86,0.00,,,0.00,weatherlink.com 1.10,2013-01-26 00:34:00,
2013-01-25 19:49:00,12.7,9.0,30.06,East,83,0.0,0.0,86,0.00,,,0.00,weatherlink.com 1.10,2013-01-26 00:49:00,
2013-01-25 20:03:00,12.6,10.0,30.06,East,84,0.0,0.0,88,0.00,,,0.00,weatherlink.com 1.10,2013-01-26 01:03:00,
2013-01-25 20:19:00,12.6,10.0,30.06,East,83,0.0,0.0,87,0.00,,,0.00,weatherlink.com 1.10,2013-01-26 01:19:00,
2013-01-25 20:34:00,12.8,10.0,30.06,East,83,0.0,0.0,88,0.00,,,0.00,weatherlink.com 1.10,2013-01-26 01:34:00,
2013-01-25 20:48:00,12.9,10.0,30.06,East,88,0.0,0.0,88,0.00,,,0.00,weatherlink.com 1.10,2013-01-26 01:48:00,
2013-01-25 21:04:00,12.8,10.0,30.06,East,88,0.0,0.0,88,0.00,,,0.00,weatherlink.com 1.10,2013-01-26 02:04:00,
2013-01-25 21:19:00,12.4,9.0,30.06,East,88,0.0,0.0,87,0.00,,,0.00,weatherlink.com 1.10,2013-01-26 02:19:00,
2013-01-25 21:34:00,11.8,9.0,30.06,East,88,0.0,0.0,88,0.00,,,0.00,weatherlink.com 1.10,2013-01-26 02:34:00,
2013-01-25 21:49:00,11.5,9.0,30.07,East,87,0.0,0.0,88,0.00,,,0.00,weatherlink.com 1.10,2013-01-26 02:49:00,
2013-01-25 22:04:00,11.2,8.0,30.07,East,88,0.0,0.0,88,0.00,,,0.00,weatherlink.com 1.10,2013-01-26 03:04:00,
2013-01-25 22:19:00,11.4,9.0,30.07,East,88,0.0,0.0,89,0.00,,,0.00,weatherlink.com 1.10,2013-01-26 03:19:00,
2013-01-25 22:33:00,11.0,8.0,30.06,East,87,0.0,0.0,89,0.00,,,0.00,weatherlink.com 1.10,2013-01-26 03:33:00,
2013-01-25 22:49:00,9.8,7.0,30.06,East,87,0.0,0.0,88,0.00,,,0.00,weatherlink.com 1.10,2013-01-26 03:49:00,
2013-01-25 23:04:00,10.6,8.0,30.06,East,87,0.0,0.0,90,0.00,,,0.00,weatherlink.com 1.10,2013-01-26 04:04:00,
2013-01-25 23:19:00,9.8,7.0,30.06,East,87,0.0,0.0,89,0.00,,,0.00,weatherlink.com 1.10,2013-01-26 04:19:00,
2013-01-25 23:34:00,10.3,8.0,30.06,East,87,0.0,0.0,90,0.00,,,0.00,weatherlink.com 1.10,2013-01-26 04:34:00,
2013-01-25 23:49:00,11.1,9.0,30.07,East,87,0.0,0.0,91,0.00,,,0.00,weatherlink.com 1.10,2013-01-26 04:49:00,